TimeEDT,TemperatureF,Dew PointF,Humidity,Sea Level PressureIn,VisibilityMPH,Wind Direction,Wind SpeedMPH,Gust SpeedMPH,PrecipitationIn,Events,Conditions,WindDirDegrees,DateUTC
12:15 AM,59.0,53.6,82,29.90,10.0,North,-9999.0,-,N/A,,Partly Cloudy,0,2013-03-12 04:15:00
12:35 AM,59.0,53.6,82,29.89,10.0,North,-9999.0,-,N/A,,Clear,0,2013-03-12 04:35:00
12:55 AM,59.0,53.6,82,29.89,10.0,North,-9999.0,-,N/A,Rain,Light Rain,0,2013-03-12 04:55:00
1:15 AM,59.0,55.4,88,29.89,10.0,North,-9999.0,-,N/A,,Mostly Cloudy,0,2013-03-12 05:15:00
1:35 AM,59.0,55.4,88,29.88,10.0,North,-9999.0,-,N/A,,Scattered Clouds,0,2013-03-12 05:35:00
1:55 AM,57.2,55.4,94,29.87,10.0,North,-9999.0,-,N/A,,Clear,0,2013-03-12 05:55:00
2:15 AM,57.2,55.4,94,29.86,10.0,North,-9999.0,-,N/A,Rain,Light Rain,0,2013-03-12 06:15:00
2:35 AM,57.2,57.2,100,29.86,10.0,North,-9999.0,-,N/A,Rain,Light Rain,0,2013-03-12 06:35:00
2:55 AM,57.2,57.2,100,29.84,10.0,North,-9999.0,-,N/A,Rain,Light Rain,0,2013-03-12 06:55:00
3:15 AM,57.2,57.2,100,29.83,9.0,North,-9999.0,-,N/A,Rain,Light Rain,0,2013-03-12 07:15:00
3:35 AM,57.2,57.2,100,29.83,5.0,North,-9999.0,-,0.01,Rain,Light Rain,0,2013-03-12 07:35:00
3:55 AM,57.2,57.2,100,29.82,7.0,North,-9999.0,-,0.03,Rain,Light Rain,0,2013-03-12 07:55:00
4:15 AM,57.2,57.2,100,29.81,7.0,North,-9999.0,-,0.01,Rain,Light Rain,0,2013-03-12 08:15:00
4:35 AM,59.0,59.0,100,29.81,8.0,North,-9999.0,-,0.02,Rain,Light Rain,0,2013-03-12 08:35:00
4:55 AM,59.0,59.0,100,29.80,7.0,North,-9999.0,-,0.03,Rain,Light Rain,0,2013-03-12 08:55:00
5:15 AM,59.0,59.0,100,29.81,5.0,North,-9999.0,-,0.02,Rain,Light Rain,0,2013-03-12 09:15:00
5:35 AM,59.0,59.0,100,29.81,7.0,North,-9999.0,-,0.03,Rain,Light Rain,0,2013-03-12 09:35:00
5:55 AM,59.0,59.0,100,29.80,5.0,North,-9999.0,-,0.06,Rain,Light Rain,0,2013-03-12 09:55:00
6:15 AM,59.0,59.0,100,29.81,7.0,North,-9999.0,-,0.01,Rain,Light Rain,0,2013-03-12 10:15:00
6:35 AM,59.0,59.0,100,29.81,4.0,North,-9999.0,-,0.04,Rain,Light Rain,0,2013-03-12 10:35:00
6:55 AM,59.0,59.0,100,29.80,8.0,North,-9999.0,-,0.05,Rain,Light Rain,0,2013-03-12 10:55:00
7:15 AM,59.0,59.0,100,29.81,10.0,North,-9999.0,-,N/A,,Overcast,0,2013-03-12 11:15:00
7:35 AM,59.0,59.0,100,29.81,10.0,North,-9999.0,-,N/A,,Overcast,0,2013-03-12 11:35:00
7:55 AM,60.8,60.8,100,29.81,10.0,North,-9999.0,-,N/A,,Overcast,0,2013-03-12 11:55:00
8:15 AM,60.8,59.0,94,29.81,10.0,North,-9999.0,-,N/A,,Overcast,0,2013-03-12 12:15:00
8:35 AM,60.8,59.0,94,29.81,10.0,North,-9999.0,-,N/A,,Overcast,0,2013-03-12 12:35:00
8:55 AM,60.8,59.0,94,29.82,10.0,North,-9999.0,-,N/A,,Overcast,0,2013-03-12 12:55:00
9:35 AM,60.8,59.0,94,29.82,10.0,North,-9999.0,-,N/A,,Overcast,0,2013-03-12 13:35:00
9:55 AM,60.8,59.0,94,29.83,4.0,North,-9999.0,-,0.01,Rain,Light Rain,0,2013-03-12 13:55:00
10:15 AM,60.8,60.8,100,29.83,5.0,North,-9999.0,-,N/A,Rain,Light Rain,0,2013-03-12 14:15:00
10:35 AM,60.8,60.8,100,29.83,5.0,North,-9999.0,-,N/A,,Overcast,0,2013-03-12 14:35:00
10:55 AM,60.8,60.8,100,29.83,2.0,North,-9999.0,-,N/A,Rain,Light Rain,0,2013-03-12 14:55:00
11:15 AM,62.6,62.6,100,29.83,10.0,North,-9999.0,-,N/A,,Overcast,0,2013-03-12 15:15:00
11:35 AM,62.6,62.6,100,29.83,10.0,North,-9999.0,-,N/A,,Overcast,0,2013-03-12 15:35:00
11:55 AM,64.4,62.6,94,29.84,10.0,North,-9999.0,-,N/A,,Overcast,0,2013-03-12 15:55:00
12:15 PM,64.4,62.6,94,29.84,10.0,North,-9999.0,-,N/A,,Overcast,0,2013-03-12 16:15:00
12:35 PM,68.0,62.6,83,29.83,10.0,North,-9999.0,-,N/A,,Overcast,0,2013-03-12 16:35:00
12:55 PM,68.0,59.0,73,29.83,10.0,North,-9999.0,-,N/A,,Mostly Cloudy,0,2013-03-12 16:55:00
1:15 PM,68.0,59.0,73,29.82,10.0,North,-9999.0,-,N/A,,Scattered Clouds,0,2013-03-12 17:15:00
1:35 PM,69.8,57.2,64,29.82,10.0,North,-9999.0,-,N/A,,Partly Cloudy,0,2013-03-12 17:35:00
1:55 PM,69.8,57.2,64,29.80,10.0,North,-9999.0,-,N/A,,Scattered Clouds,0,2013-03-12 17:55:00
2:15 PM,71.6,55.4,57,29.79,10.0,North,-9999.0,-,N/A,,Partly Cloudy,0,2013-03-12 18:15:00
2:35 PM,73.4,50.0,44,29.78,10.0,North,-9999.0,-,N/A,,Clear,0,2013-03-12 18:35:00
2:55 PM,71.6,50.0,46,29.78,10.0,North,-9999.0,-,N/A,,Partly Cloudy,0,2013-03-12 18:55:00
3:15 PM,73.4,48.2,41,29.77,10.0,North,-9999.0,-,N/A,,Clear,0,2013-03-12 19:15:00
3:35 PM,73.4,44.6,36,29.77,10.0,North,-9999.0,-,N/A,,Clear,0,2013-03-12 19:35:00
3:55 PM,73.4,42.8,33,29.78,10.0,North,-9999.0,-,N/A,,Clear,0,2013-03-12 19:55:00
4:15 PM,73.4,42.8,33,29.78,10.0,North,-9999.0,-,N/A,,Clear,0,2013-03-12 20:15:00
4:35 PM,73.4,41.0,31,29.78,10.0,North,-9999.0,-,N/A,,Clear,0,2013-03-12 20:35:00
4:55 PM,73.4,41.0,31,29.78,10.0,North,-9999.0,-,N/A,,Clear,0,2013-03-12 20:55:00
5:15 PM,73.4,41.0,31,29.79,10.0,North,-9999.0,-,N/A,,Clear,0,2013-03-12 21:15:00
5:35 PM,71.6,44.6,38,29.79,10.0,North,-9999.0,-,N/A,,Clear,0,2013-03-12 21:35:00
5:55 PM,71.6,46.4,41,29.80,10.0,North,-9999.0,-,N/A,,Clear,0,2013-03-12 21:55:00
6:15 PM,71.6,46.4,41,29.80,10.0,North,-9999.0,-,N/A,,Clear,0,2013-03-12 22:15:00
6:35 PM,69.8,44.6,40,29.81,10.0,North,-9999.0,-,N/A,,Clear,0,2013-03-12 22:35:00
6:55 PM,68.0,44.6,43,29.82,10.0,North,-9999.0,-,N/A,,Clear,0,2013-03-12 22:55:00
7:15 PM,66.2,44.6,46,29.83,10.0,North,-9999.0,-,N/A,,Clear,0,2013-03-12 23:15:00
7:35 PM,64.4,44.6,49,29.84,10.0,North,-9999.0,-,N/A,,Clear,0,2013-03-12 23:35:00
7:55 PM,64.4,44.6,49,29.85,10.0,North,-9999.0,-,N/A,,Clear,0,2013-03-12 23:55:00
8:15 PM,62.6,46.4,55,29.86,10.0,North,-9999.0,-,N/A,,Clear,0,2013-03-13 00:15:00
8:35 PM,60.8,41.0,48,29.87,10.0,North,-9999.0,-,N/A,,Clear,0,2013-03-13 00:35:00
8:55 PM,60.8,39.2,45,29.89,10.0,North,-9999.0,-,N/A,,Clear,0,2013-03-13 00:55:00
9:15 PM,59.0,35.6,42,29.90,10.0,North,-9999.0,-,N/A,,Clear,0,2013-03-13 01:15:00
9:35 PM,57.2,35.6,44,29.90,10.0,North,-9999.0,-,N/A,,Clear,0,2013-03-13 01:35:00
9:55 PM,57.2,33.8,41,29.91,10.0,North,-9999.0,-,N/A,,Clear,0,2013-03-13 01:55:00
10:15 PM,57.2,32.0,38,29.92,10.0,North,-9999.0,-,N/A,,Clear,0,2013-03-13 02:15:00
10:35 PM,55.4,32.0,41,29.93,10.0,North,-9999.0,-,N/A,,Clear,0,2013-03-13 02:35:00
10:55 PM,55.4,32.0,41,29.94,10.0,North,-9999.0,-,N/A,,Clear,0,2013-03-13 02:55:00
11:15 PM,53.6,32.0,44,29.95,10.0,North,-9999.0,-,N/A,,Clear,0,2013-03-13 03:15:00
11:35 PM,53.6,32.0,44,29.95,10.0,North,-9999.0,-,N/A,,Clear,0,2013-03-13 03:35:00
11:55 PM,51.8,32.0,47,29.96,10.0,North,-9999.0,-,N/A,,Clear,0,2013-03-13 03:55:00